| time (UTC) | temp C | wind direction | speed KPH | gust KPH | rain 1hr cm | rain 24hr cm | rain mn cm | humidity % | barometer mb |
| 20260906040059 | 23 | 0 | 0.0 | 0.0 | 0.00 | 0.00 | 0.00 | 91 | 1014.3 |
| 20260906034600 | 23 | 0 | 0.0 | 0.0 | 0.00 | 0.00 | 0.00 | 90 | 1014.6 |
| 20260906033104 | 23 | 0 | 0.0 | 0.0 | 0.00 | 0.00 | 0.00 | 90 | 1014.6 |
| 20260906031604 | 23 | 0 | 0.0 | 0.0 | 0.00 | 0.00 | 0.00 | 89 | 1014.0 |
| 20260906030101 | 23 | 0 | 0.0 | 0.0 | 0.00 | 0.00 | 0.00 | 88 | 1014.0 |
| 20260906024556 | 24 | 0 | 0.0 | 3.2 | 0.00 | 0.00 | 0.00 | 88 | 1014.1 |
| 20260906023100 | 24 | 0 | 0.0 | 1.6 | 0.00 | 0.00 | 0.00 | 87 | 1013.9 |
| 20260906021603 | 25 | 0 | 0.0 | 1.6 | 0.00 | 0.00 | 0.00 | 85 | 1013.8 |
| 20260906014611 | 26 | 0 | 0.0 | 3.2 | 0.00 | 0.00 | 0.00 | 82 | 1013.0 |
| 20260906013100 | 26 | 198 | 0.0 | 3.2 | 0.00 | 0.00 | 0.00 | 80 | 1013.1 |
| 20260906011619 | 27 | 0 | 0.0 | 0.0 | 0.00 | 0.00 | 0.00 | 78 | 1013.1 |
| 20260906010056 | 27 | 0 | 0.0 | 3.2 | 0.00 | 0.00 | 0.00 | 76 | 1013.2 |
| 20260906004558 | 27 | 0 | 0.0 | 12.9 | 0.00 | 0.00 | 0.00 | 75 | 1013.4 |
| 20260906003056 | 27 | 183 | 0.0 | 3.2 | 0.00 | 0.00 | 0.00 | 80 | 1013.2 |
| 20260906001600 | 27 | 0 | 0.0 | 3.2 | 0.00 | 0.00 | 0.00 | 78 | 1013.2 |
| 20260906000101 | 28 | 0 | 0.0 | 3.2 | 0.00 | 0.00 | 0.00 | 75 | 1013.1 |
| 20260905234558 | 29 | 0 | 1.6 | 3.2 | 0.00 | 0.00 | 0.00 | 71 | 1013.1 |
| 20260905233118 | 30 | 78 | 0.0 | 9.7 | 0.00 | 0.00 | 0.00 | 68 | 1012.7 |
| 20260905231557 | 31 | 0 | 1.6 | 6.4 | 0.00 | 0.00 | 0.00 | 63 | 1012.7 |
| 20260905224612 | 32 | 96 | 3.2 | 8.0 | 0.00 | 0.00 | 0.00 | 60 | 1012.8 |
| 20260905223105 | 32 | 40 | 6.4 | 16.1 | 0.00 | 0.00 | 0.00 | 59 | 1013.1 |
| 20260905221553 | 33 | 107 | 3.2 | 11.3 | 0.00 | 0.00 | 0.00 | 56 | 1013.2 |
| 20260905220104 | 33 | 73 | 1.6 | 6.4 | 0.00 | 0.00 | 0.00 | 57 | 1013.0 |
| 20260905214556 | 33 | 58 | 3.2 | 8.0 | 0.00 | 0.00 | 0.00 | 56 | 1013.0 |
| 20260905213102 | 33 | 115 | 1.6 | 14.5 | 0.00 | 0.00 | 0.00 | 56 | 1013.1 |
| 20260905211603 | 33 | 111 | 1.6 | 14.5 | 0.00 | 0.00 | 0.00 | 57 | 1013.1 |
| 20260905210058 | 34 | 122 | 3.2 | 14.5 | 0.00 | 0.00 | 0.00 | 55 | 1013.3 |
| 20260905204603 | 33 | 88 | 1.6 | 11.3 | 0.00 | 0.00 | 0.00 | 56 | 1013.2 |
| 20260905203105 | 33 | 175 | 0.0 | 8.0 | 0.00 | 0.00 | 0.00 | 55 | 1013.3 |
| 20260905201611 | 33 | 128 | 1.6 | 11.3 | 0.00 | 0.00 | 0.00 | 56 | 1013.6 |
| 20260905200107 | 33 | 31 | 1.6 | 6.4 | 0.00 | 0.00 | 0.00 | 58 | 1013.5 |
| 20260905194601 | 33 | 208 | 3.2 | 14.5 | 0.00 | 0.00 | 0.00 | 57 | 1013.8 |
| 20260905193101 | 33 | 55 | 6.4 | 24.1 | 0.00 | 0.00 | 0.00 | 55 | 1013.9 |
| 20260905191558 | 35 | 194 | 3.2 | 9.7 | 0.00 | 0.00 | 0.00 | 55 | 1014.1 |
| 20260905190138 | 35 | 286 | 3.2 | 12.9 | 0.00 | 0.00 | 0.00 | 53 | 1014.2 |
| 20260905184622 | 36 | 300 | 3.2 | 11.3 | 0.00 | 0.00 | 0.00 | 53 | 1014.2 |
| 20260905183101 | 35 | 187 | 6.4 | 12.9 | 0.00 | 0.00 | 0.00 | 56 | 1014.4 |
| 20260905181600 | 34 | 106 | 4.8 | 11.3 | 0.00 | 0.00 | 0.00 | 55 | 1014.7 |
| 20260905180056 | 35 | 205 | 4.8 | 9.7 | 0.00 | 0.00 | 0.00 | 54 | 1015.0 |
| 20260905174601 | 35 | 142 | 1.6 | 11.3 | 0.00 | 0.00 | 0.00 | 56 | 1015.0 |
| 20260905173059 | 35 | 84 | 6.4 | 14.5 | 0.00 | 0.00 | 0.00 | 56 | 1015.1 |
| 20260905171558 | 34 | 5 | 3.2 | 11.3 | 0.00 | 0.00 | 0.00 | 58 | 1015.2 |
| 20260905170104 | 33 | 63 | 3.2 | 14.5 | 0.00 | 0.00 | 0.00 | 62 | 1015.6 |
| 20260905164559 | 33 | 82 | 3.2 | 9.7 | 0.00 | 0.00 | 0.00 | 64 | 1015.7 |
| 20260905163105 | 32 | 42 | 3.2 | 6.4 | 0.00 | 0.00 | 0.00 | 68 | 1015.9 |
| 20260905161557 | 31 | 196 | 1.6 | 6.4 | 0.00 | 0.00 | 0.00 | 71 | 1016.2 |
| 20260905160057 | 30 | 352 | 3.2 | 9.7 | 0.00 | 0.00 | 0.00 | 74 | 1016.2 |
| 20260905154606 | 29 | 211 | 1.6 | 6.4 | 0.00 | 0.00 | 0.00 | 78 | 1016.4 |
| 20260905153102 | 28 | 0 | 0.0 | 4.8 | 0.00 | 0.00 | 0.00 | 79 | 1016.4 |
| 20260905151558 | 27 | 0 | 0.0 | 3.2 | 0.00 | 0.00 | 0.00 | 82 | 1016.4 |
| 20260905150100 | 27 | 0 | 0.0 | 6.4 | 0.00 | 0.00 | 0.00 | 84 | 1016.5 |
| 20260905144558 | 27 | 0 | 0.0 | 1.6 | 0.00 | 0.00 | 0.00 | 86 | 1016.6 |
| 20260905143100 | 27 | 0 | 0.0 | 3.2 | 0.00 | 0.00 | 0.00 | 86 | 1016.6 |
| 20260905141630 | 26 | 0 | 1.6 | 4.8 | 0.00 | 0.00 | 0.00 | 88 | 1016.7 |
| 20260905134559 | 24 | 148 | 1.6 | 4.8 | 0.00 | 0.00 | 0.00 | 96 | 1016.5 |
| 20260905133058 | 23 | 0 | 0.0 | 4.8 | 0.00 | 0.00 | 0.00 | 97 | 1016.7 |
| 20260905131615 | 22 | 0 | 0.0 | 1.6 | 0.00 | 0.00 | 0.00 | 97 | 1016.8 |
| 20260905130116 | 22 | 0 | 0.0 | 3.2 | 0.00 | 0.00 | 0.00 | 97 | 1016.7 |
| 20260905124600 | 22 | 0 | 0.0 | 0.0 | 0.00 | 0.00 | 0.00 | 98 | 1016.9 |
| 20260905123110 | 21 | 0 | 0.0 | 0.0 | 0.00 | 0.00 | 0.00 | 98 | 1016.8 |
| 20260905121557 | 21 | 0 | 0.0 | 0.0 | 0.00 | 0.00 | 0.00 | 97 | 1016.7 |
| 20260905120058 | 20 | 0 | 0.0 | 0.0 | 0.00 | 0.00 | 0.00 | 97 | 1016.7 |
| 20260905114553 | 20 | 0 | 0.0 | 0.0 | 0.00 | 0.00 | 0.00 | 97 | 1016.6 |
| 20260905113112 | 20 | 0 | 0.0 | 0.0 | 0.00 | 0.00 | 0.00 | 97 | 1016.2 |
| 20260905111559 | 20 | 0 | 0.0 | 0.0 | 0.00 | 0.00 | 0.00 | 97 | 1015.9 |
| 20260905110057 | 20 | 0 | 0.0 | 0.0 | 0.00 | 0.00 | 0.00 | 97 | 1015.8 |
| 20260905104558 | 20 | 0 | 0.0 | 0.0 | 0.00 | 0.00 | 0.00 | 97 | 1015.7 |
| 20260905103058 | 20 | 0 | 0.0 | 0.0 | 0.00 | 0.00 | 0.00 | 96 | 1015.6 |
| 20260905101629 | 20 | 0 | 0.0 | 0.0 | 0.00 | 0.00 | 0.00 | 96 | 1015.6 |
| 20260905100100 | 20 | 0 | 0.0 | 0.0 | 0.00 | 0.00 | 0.00 | 97 | 1015.5 |
| 20260905094600 | 20 | 0 | 0.0 | 0.0 | 0.00 | 0.00 | 0.00 | 96 | 1015.4 |
| 20260905093102 | 20 | 0 | 0.0 | 0.0 | 0.00 | 0.00 | 0.00 | 96 | 1015.3 |
| 20260905091614 | 20 | 0 | 0.0 | 0.0 | 0.00 | 0.00 | 0.00 | 96 | 1015.3 |
| 20260905090058 | 20 | 0 | 0.0 | 0.0 | 0.00 | 0.00 | 0.00 | 96 | 1015.4 |
| 20260905084618 | 20 | 0 | 0.0 | 0.0 | 0.00 | 0.00 | 0.00 | 96 | 1015.3 |
| 20260905083059 | 20 | 0 | 0.0 | 0.0 | 0.00 | 0.00 | 0.00 | 96 | 1015.3 |
| 20260905081557 | 20 | 0 | 0.0 | 0.0 | 0.00 | 0.00 | 0.00 | 96 | 1015.4 |
| 20260905080059 | 20 | 0 | 0.0 | 0.0 | 0.00 | 0.00 | 0.00 | 96 | 1015.5 |
| 20260905074559 | 20 | 0 | 0.0 | 0.0 | 0.00 | 0.00 | 0.00 | 95 | 1015.4 |
| 20260905073051 | 20 | 0 | 0.0 | 0.0 | 0.00 | 0.00 | 0.00 | 95 | 1015.5 |
| 20260905071600 | 20 | 0 | 0.0 | 0.0 | 0.00 | 0.00 | 0.00 | 95 | 1015.6 |
| 20260905070113 | 21 | 0 | 0.0 | 0.0 | 0.00 | 0.00 | 0.00 | 95 | 1015.7 |
| 20260905064555 | 21 | 0 | 0.0 | 0.0 | 0.00 | 0.00 | 0.00 | 95 | 1015.7 |
| 20260905063102 | 21 | 0 | 0.0 | 0.0 | 0.00 | 0.00 | 0.00 | 95 | 1015.8 |
| 20260905061612 | 21 | 0 | 0.0 | 0.0 | 0.00 | 0.00 | 0.00 | 95 | 1015.7 |
| 20260905060054 | 21 | 0 | 0.0 | 1.6 | 0.00 | 0.00 | 0.00 | 95 | 1015.9 |
| 20260905054554 | 21 | 0 | 0.0 | 0.0 | 0.00 | 0.00 | 0.00 | 95 | 1016.0 |
| 20260905053111 | 21 | 0 | 0.0 | 0.0 | 0.00 | 0.00 | 0.00 | 94 | 1015.9 |
| 20260905051601 | 21 | 0 | 0.0 | 0.0 | 0.00 | 0.00 | 0.00 | 94 | 1015.7 |
| 20260905044559 | 22 | 0 | 0.0 | 0.0 | 0.00 | 0.00 | 0.00 | 93 | 1015.8 |
| 20260905043057 | 22 | 0 | 0.0 | 0.0 | 0.00 | 0.00 | 0.00 | 93 | 1015.8 |
| 20260905041554 | 22 | 0 | 0.0 | 0.0 | 0.00 | 0.00 | 0.00 | 93 | 1015.8 |